Lid_Strength_Index
1 4 5 5 9 11 13 11 8 8 7 6 5 7 8 7 9 10 2 1 0 0 -0 -0 -1 -1 -1 -1 -1 -1 -1 -1 -1 -1 -1 -1 -1 -1 -2 -2 -2 -2 -2 -2 -1 -1 -1 -1 -1
3 3 5 8 12 15 13 9 9 8 7 5 5 6 7 8 4 4 3 1 0 0 -0 -0 -1 -1 -1 -1 -1 -1 -1 -1 -1 -1 -1 -1 -1 -1 -2 -2 -2 -2 -1 -1 -1 -1 -1 -1 -1
1 3 8 11 13 14 13 8 7 6 7 6 6 5 6 7 4 3 1 0 0 0 -0 -0 -1 -1 -1 -1 -1 -1 -1 -1 -1 -1 -1 -1 -1 -2 -2 -2 -2 -2 -1 -1 -1 -1 -1 -1 -1
4 7 8 13 14 12 11 7 6 6 7 6 5 8 5 2 3 2 0 0 1 0 -0 -1 -1 -1 -1 -1 -1 -1 -1 -1 -1 -1 -1 -1 -1 -2 -2 -2 -2 -2 -1 -1 -1 -2 -2 -2 -2
5 9 13 13 12 11 9 6 7 7 7 7 5 7 7 4 1 1 1 0 1 1 -0 -0 -1 -1 -1 -1 -1 -1 -1 -1 -1 -1 -1 -1 -1 -2 -2 -2 -2 -1 -1 -1 -2 -3 -3 -3 -3
8 9 14 14 13 11 9 6 6 7 7 7 6 7 6 2 2 1 1 1 0 1 -0 -0 -1 -1 -1 -1 -1 -1 -1 -1 -1 -1 -1 -1 -1 -2 -2 -2 -2 -2 -1 -2 -2 -3 -3 -3 -3
10 12 13 12 11 11 8 7 7 6 7 8 5 8 6 4 3 1 1 1 0 0 0 -0 -0 -1 -1 -1 -1 -1 -1 -1 -1 -1 -1 -1 -1 -2 -2 -2 -2 -2 -2 -2 -2 -2 -2 -3 -3
8 11 12 12 11 11 8 8 7 7 6 4 4 8 7 4 2 2 0 1 1 0 0 0 -0 -0 -0 -0 -1 -1 -1 -1 -1 -1 -1 -1 -2 -2 -2 -2 -2 -2 -2 -2 -2 -2 -2 -2 -3
7 12 14 11 11 10 8 9 7 6 6 5 4 5 4 2 2 3 2 2 2 1 1 0 0 0 -0 -0 -1 -1 -1 -1 -1 -1 -1 -1 -0 -0 -1 -2 -3 -2 -2 -2 -2 -2 -2 -3 -3
10 13 11 8 8 9 8 8 7 7 7 6 5 4 3 2 5 4 3 3 3 2 1 1 0 0 0 -0 -0 0 -0 -0 -0 -0 -0 0 0 0 -1 -1 -3 -3 -2 -3 -3 -3 -2 -2 -0
10 11 9 7 7 7 8 8 7 7 9 7 6 5 4 3 5 4 3 3 3 2 1 1 1 0 1 1 0 0 1 0 0 0 0 0 0 0 0 -0 -0 -0 -2 -1 -1 -1 -1 0 1
11 9 8 7 7 8 8 7 7 8 7 5 4 4 5 6 5 3 3 3 2 2 1 1 1 1 1 0 0 0 0 0 0 0 0 0 0 1 1 0 0 0 1 1 1 1 1 1 2
11 9 8 7 8 9 8 8 8 8 6 5 5 4 4 4 4 3 3 2 2 2 2 1 1 1 1 0 0 0 0 0 0 0 -0 -0 0 0 1 1 0 1 2 1 1 1 3 3 1
9 9 9 9 9 9 9 9 9 7 6 6 5 6 6 6 3 3 3 3 3 2 2 1 1 0 0 0 0 0 1 0 0 -0 -0 0 0 1 1 1 0 2 1 1 2 3 4 3 2
9 11 9 9 9 10 9 10 9 7 6 7 6 6 5 5 3 4 3 3 3 2 2 2 1 0 0 1 0 1 1 0 0 0 0 0 0 0 1 0 1 1 0 2 3 4 4 4 1
10 11 14 10 9 8 9 13 8 7 7 7 6 6 5 5 4 3 3 3 2 2 1 1 1 0 1 1 0 0 0 0 0 0 -0 -0 0 0 0 0 1 0 1 2 3 3 3 3 2
13 14 13 10 8 8 9 12 8 7 8 8 7 6 5 4 4 3 4 5 3 2 1 1 1 1 1 1 0 1 0 0 0 0 0 -0 -0 0 0 1 1 1 0 1 2 3 2 2 3
14 13 12 11 9 9 10 11 8 7 7 7 7 7 5 5 4 3 3 3 2 2 4 1 1 1 1 1 1 1 1 1 0 0 0 0 0 0 0 0 0 1 2 1 2 2 2 3 2
10 11 11 9 8 9 11 10 9 8 9 8 7 7 5 5 4 3 3 2 2 2 4 2 2 1 1 2 2 2 2 1 1 1 0 0 1 0 1 1 1 0 1 1 1 3 3 3 3
9 11 11 9 8 10 10 10 9 9 9 7 7 7 5 5 4 4 3 3 3 2 3 4 2 1 1 1 1 1 1 1 1 1 1 1 1 1 1 2 1 1 1 1 2 3 3 4 3
9 10 10 10 9 9 10 11 10 8 8 8 7 5 5 5 5 4 4 3 3 3 2 2 3 2 1 1 1 1 1 1 2 2 2 1 1 0 0 1 1 1 1 1 2 2 2 3 3
12 8 8 9 11 14 11 16 12 10 9 8 7 6 6 5 5 4 4 4 3 3 3 2 1 1 1 1 2 2 2 3 2 2 2 2 1 1 1 1 1 1 0 1 1 2 3 2 3
9 8 9 9 11 13 11 15 13 10 10 10 7 7 6 5 5 5 4 3 3 2 3 3 2 2 2 2 1 2 2 2 2 1 2 3 1 1 1 1 0 1 0 1 1 2 2 2 2
6 8 9 11 13 15 13 13 13 11 10 8 7 6 6 5 4 4 4 3 3 2 2 4 4 4 3 2 1 2 2 2 2 2 2 2 2 2 1 1 1 1 1 1 1 2 2 2 2
8 12 14 15 17 16 11 13 12 11 9 7 7 6 6 5 5 4 4 4 4 4 3 2 4 3 3 2 1 1 1 2 2 2 2 2 2 2 2 1 1 1 0 0 0 2 2 2 2
9 12 14 19 18 16 11 15 14 9 8 7 8 6 6 6 6 4 4 3 3 3 3 2 2 2 2 1 1 1 1 1 2 2 2 1 2 1 1 1 1 2 2 0 1 1 2 2 2
10 13 10 14 14 17 14 12 10 9 9 8 9 8 7 6 5 6 4 3 3 3 3 2 2 2 2 2 1 1 1 1 1 1 1 1 1 1 0 1 2 2 1 1 1 1 2 2 2
10 8 15 14 20 21 16 15 15 12 11 9 9 8 8 7 6 5 6 5 4 4 4 3 3 2 2 2 1 1 1 1 1 1 1 1 2 2 2 2 1 1 1 1 2 3 2 2 2
12 13 12 12 15 19 21 18 11 11 10 10 8 8 8 8 7 7 7 6 6 6 5 5 5 4 3 2 2 2 1 1 1 1 1 1 1 1 1 2 2 2 2 2 2 2 2 1 2
10 12 13 17 17 15 17 18 9 9 9 8 8 7 7 6 6 6 7 7 7 7 6 6 6 5 4 2 3 2 1 1 2 1 1 1 2 1 1 2 2 2 1 1 1 2 1 2 2